START_TIME,STEP,MOV.,M35,t_acc.,PL05,t_acc.,PL06,t_acc.,PL07,t_acc.
1989-08-27T18:00:24.420 ,7,0,0.,4.8,1.,4.8,0.,4.8,0.,4.8
1989-08-27T18:00:29.220 ,7,0,0.,4.8,0.,4.8,0.,4.8,1.,4.8
1989-08-27T18:00:34.020 ,7,0,0.,4.8,0.,4.8,0.,4.8,0.,4.8
1989-08-27T18:00:38.820 ,7,0,0.,4.8,0.,4.8,0.,4.8,0.,4.8
1989-08-27T18:00:43.620 ,7,0,0.,4.8,1.,4.8,0.,4.8,0.,4.8
1989-08-27T18:00:48.420 ,7,0,0.,4.8,1.,4.8,0.,4.8,0.,4.8
1989-08-27T18:00:53.220 ,7,0,0.,4.8,0.,4.8,0.,4.8,0.,4.8
1989-08-27T18:00:58.020 ,7,0,0.,4.8,1.,4.8,0.,4.8,0.,4.8
1989-08-27T18:01:02.820 ,7,0,0.,4.8,1.,4.8,0.,4.8,0.,4.8
1989-08-27T18:01:07.620 ,7,0,0.,4.8,0.,4.8,0.,4.8,0.,4.8
1989-08-27T18:01:12.420 ,7,0,0.,4.8,0.,4.8,0.,4.8,0.,4.8
1989-08-27T18:01:17.220 ,7,0,0.,4.8,1.,4.8,0.,4.8,0.,4.8
1989-08-27T18:01:22.020 ,7,0,0.,4.8,1.,4.8,0.,4.8,0.,4.8
1989-08-27T18:01:26.820 ,7,0,0.,4.8,0.,4.8,0.,4.8,0.,4.8
1989-08-27T18:01:31.620 ,7,0,0.,4.8,0.,4.8,0.,4.8,1.,4.8
1989-08-27T18:01:36.420 ,6,0,0.,4.8,0.,4.8,0.,4.8,0.,4.8
1989-08-27T18:01:41.220 ,6,0,0.,4.8,1.,4.8,0.,4.8,0.,4.8
1989-08-27T18:01:46.020 ,6,0,0.,4.8,1.,4.8,1.,4.8,0.,4.8
1989-08-27T18:01:50.820 ,6,0,0.,4.8,0.,4.8,0.,4.8,0.,4.8
1989-08-27T18:01:55.620 ,6,0,0.,4.8,1.,4.8,0.,4.8,0.,4.8
1989-08-27T18:02:00.420 ,6,0,0.,4.8,1.,4.8,0.,4.8,0.,4.8
1989-08-27T18:02:05.220 ,6,0,0.,4.8,1.,4.8,0.,4.8,0.,4.8
1989-08-27T18:02:10.020 ,6,0,0.,4.8,0.,4.8,0.,4.8,0.,4.8
1989-08-27T18:02:14.820 ,6,0,0.,4.8,1.,4.8,0.,4.8,0.,4.8
1989-08-27T18:02:19.620 ,6,0,0.,4.8,0.,4.8,0.,4.8,0.,4.8
1989-08-27T18:02:24.420 ,5,0,0.,4.8,1.,4.8,0.,4.8,0.,4.8
1989-08-27T18:02:29.220 ,5,0,0.,4.8,0.,4.8,0.,4.8,0.,4.8
1989-08-27T18:02:34.020 ,5,0,0.,4.8,0.,4.8,0.,4.8,0.,4.8
1989-08-27T18:02:38.820 ,5,0,0.,4.8,2.,4.8,0.,4.8,0.,4.8
1989-08-27T18:02:43.620 ,5,0,0.,4.8,2.,4.8,0.,4.8,0.,4.8
1989-08-27T18:02:48.420 ,5,0,0.,4.8,0.,4.8,0.,4.8,0.,4.8
1989-08-27T18:02:53.220 ,5,0,0.,4.8,1.,4.8,0.,4.8,0.,4.8
1989-08-27T18:02:58.020 ,5,0,0.,4.8,1.,4.8,0.,4.8,0.,4.8
1989-08-27T18:03:02.820 ,5,0,0.,4.8,0.,4.8,0.,4.8,1.,4.8
1989-08-27T18:03:07.620 ,5,0,0.,4.8,0.,4.8,0.,4.8,0.,4.8
1989-08-27T18:03:12.420 ,4,0,0.,4.8,3.,4.8,0.,4.8,0.,4.8
1989-08-27T18:03:17.220 ,4,0,0.,4.8,1.,4.8,0.,4.8,0.,4.8
1989-08-27T18:03:22.020 ,4,0,0.,4.8,0.,4.8,0.,4.8,1.,4.8
1989-08-27T18:03:26.820 ,4,0,0.,4.8,0.,4.8,0.,4.8,0.,4.8
1989-08-27T18:03:31.620 ,4,0,0.,4.8,3.,4.8,0.,4.8,0.,4.8
1989-08-27T18:03:36.420 ,4,0,0.,4.8,0.,4.8,0.,4.8,0.,4.8
1989-08-27T18:03:41.220 ,4,0,0.,4.8,1.,4.8,0.,4.8,0.,4.8
1989-08-27T18:03:46.020 ,4,0,0.,4.8,2.,4.8,0.,4.8,0.,4.8
1989-08-27T18:03:50.820 ,4,0,0.,4.8,0.,4.8,0.,4.8,0.,4.8
1989-08-27T18:03:55.620 ,4,0,0.,4.8,0.,4.8,0.,4.8,0.,4.8
1989-08-27T18:04:00.420 ,3,0,0.,4.8,0.,4.8,0.,4.8,1.,4.8
1989-08-27T18:04:05.220 ,3,0,0.,4.8,0.,4.8,0.,4.8,0.,4.8
1989-08-27T18:04:10.020 ,3,0,0.,4.8,0.,4.8,0.,4.8,0.,4.8
1989-08-27T18:04:14.820 ,3,0,0.,4.8,1.,4.8,0.,4.8,0.,4.8
1989-08-27T18:04:19.620 ,3,0,0.,4.8,0.,4.8,0.,4.8,0.,4.8
1989-08-27T18:04:24.420 ,3,0,0.,4.8,0.,4.8,0.,4.8,1.,4.8
1989-08-27T18:04:29.220 ,3,0,0.,4.8,2.,4.8,0.,4.8,0.,4.8
1989-08-27T18:04:34.020 ,3,0,0.,4.8,2.,4.8,0.,4.8,0.,4.8
1989-08-27T18:04:38.820 ,3,0,0.,4.8,1.,4.8,0.,4.8,0.,4.8
1989-08-27T18:04:43.620 ,3,0,0.,4.8,1.,4.8,0.,4.8,0.,4.8
1989-08-27T18:04:48.420 ,2,0,0.,4.8,1.,4.8,0.,4.8,1.,4.8
1989-08-27T18:04:53.220 ,2,0,0.,4.8,0.,4.8,0.,4.8,0.,4.8
1989-08-27T18:04:58.020 ,2,0,0.,4.8,0.,4.8,2.,4.8,0.,4.8
1989-08-27T18:05:02.820 ,2,0,0.,4.8,1.,4.8,0.,4.8,0.,4.8
1989-08-27T18:05:07.620 ,2,0,0.,4.8,0.,4.8,0.,4.8,0.,4.8
1989-08-27T18:05:12.420 ,2,0,0.,4.8,0.,4.8,0.,4.8,0.,4.8
1989-08-27T18:05:17.220 ,2,0,0.,4.8,0.,4.8,0.,4.8,0.,4.8
1989-08-27T18:05:22.020 ,2,0,0.,4.8,1.,4.8,0.,4.8,0.,4.8
1989-08-27T18:05:26.820 ,2,0,0.,4.8,3.,4.8,1.,4.8,0.,4.8
1989-08-27T18:05:31.620 ,2,0,0.,4.8,1.,4.8,0.,4.8,0.,4.8
1989-08-27T18:05:36.420 ,1,0,0.,4.8,0.,4.8,0.,4.8,1.,4.8
1989-08-27T18:05:41.220 ,1,0,0.,4.8,0.,4.8,0.,4.8,0.,4.8
1989-08-27T18:05:46.020 ,1,0,0.,4.8,2.,4.8,0.,4.8,0.,4.8
1989-08-27T18:05:50.820 ,1,0,0.,4.8,1.,4.8,0.,4.8,0.,4.8
1989-08-27T18:05:55.620 ,1,0,0.,4.8,0.,4.8,0.,4.8,0.,4.8
1989-08-27T18:06:00.420 ,1,0,0.,4.8,0.,4.8,0.,4.8,0.,4.8
1989-08-27T18:06:05.220 ,1,0,0.,4.8,1.,4.8,0.,4.8,0.,4.8
1989-08-27T18:06:10.020 ,1,0,0.,4.8,0.,4.8,0.,4.8,0.,4.8
1989-08-27T18:06:14.820 ,1,0,0.,4.8,0.,4.8,0.,4.8,0.,4.8
1989-08-27T18:06:19.620 ,1,0,0.,4.8,1.,4.8,1.,4.8,0.,4.8
1989-08-27T18:06:24.420 ,0,0,0.,4.8,0.,4.8,0.,4.8,0.,4.8
1989-08-27T18:06:29.220 ,0,0,0.,4.8,1.,4.8,0.,4.8,0.,4.8
1989-08-27T18:06:34.020 ,0,0,0.,4.8,5.,4.8,0.,4.8,0.,4.8
1989-08-27T18:06:38.820 ,0,0,0.,4.8,1.,4.8,0.,4.8,0.,4.8
1989-08-27T18:06:43.620 ,0,0,0.,4.8,1.,4.8,0.,4.8,0.,4.8
1989-08-27T18:06:48.420 ,0,0,0.,4.8,0.,4.8,1.,4.8,0.,4.8
1989-08-27T18:06:53.220 ,0,0,0.,4.8,0.,4.8,0.,4.8,0.,4.8
1989-08-27T18:06:58.020 ,0,0,0.,4.8,0.,4.8,0.,4.8,0.,4.8
1989-08-27T18:07:02.820 ,0,0,0.,4.8,0.,4.8,0.,4.8,0.,4.8
1989-08-27T18:07:07.620 ,0,0,0.,4.8,0.,4.8,0.,4.8,0.,4.8
1989-08-27T18:07:12.420 ,0,0,0.,4.8,0.,4.8,0.,4.8,0.,4.8
1989-08-27T18:07:17.220 ,0,0,0.,4.8,1.,4.8,0.,4.8,0.,4.8
1989-08-27T18:07:22.020 ,0,0,0.,4.8,0.,4.8,0.,4.8,0.,4.8
1989-08-27T18:07:26.820 ,0,0,0.,4.8,1.,4.8,0.,4.8,0.,4.8
1989-08-27T18:07:31.620 ,0,0,0.,4.8,0.,4.8,0.,4.8,0.,4.8
1989-08-27T18:07:36.420 ,0,0,0.,4.8,0.,4.8,0.,4.8,0.,4.8
1989-08-27T18:07:41.220 ,0,0,0.,4.8,1.,4.8,1.,4.8,0.,4.8
1989-08-27T18:07:46.020 ,0,0,0.,4.8,1.,4.8,0.,4.8,0.,4.8
1989-08-27T18:07:50.820 ,0,0,0.,4.8,0.,4.8,0.,4.8,0.,4.8
1989-08-27T18:07:55.620 ,0,0,0.,4.8,0.,4.8,1.,4.8,0.,4.8
1989-08-27T18:08:00.420 ,1,0,0.,4.8,2.,4.8,1.,4.8,0.,4.8
1989-08-27T18:08:05.220 ,1,0,0.,4.8,0.,4.8,1.,4.8,0.,4.8
1989-08-27T18:08:10.020 ,1,0,0.,4.8,1.,4.8,0.,4.8,0.,4.8
1989-08-27T18:08:14.820 ,1,0,0.,4.8,1.,4.8,0.,4.8,0.,4.8
1989-08-27T18:08:19.620 ,1,0,0.,4.8,0.,4.8,1.,4.8,1.,4.8
1989-08-27T18:08:24.420 ,1,0,0.,4.8,0.,4.8,0.,4.8,0.,4.8
1989-08-27T18:08:29.220 ,1,0,0.,4.8,0.,4.8,0.,4.8,1.,4.8
1989-08-27T18:08:34.020 ,1,0,0.,4.8,1.,4.8,0.,4.8,0.,4.8
1989-08-27T18:08:38.820 ,1,0,0.,4.8,0.,4.8,1.,4.8,0.,4.8
1989-08-27T18:08:43.620 ,1,0,0.,4.8,1.,4.8,0.,4.8,0.,4.8
1989-08-27T18:08:48.420 ,2,0,0.,4.8,1.,4.8,0.,4.8,0.,4.8
1989-08-27T18:08:53.220 ,2,0,0.,4.8,2.,4.8,0.,4.8,1.,4.8
1989-08-27T18:08:58.020 ,2,0,0.,4.8,0.,4.8,1.,4.8,0.,4.8
1989-08-27T18:09:02.820 ,2,0,0.,4.8,1.,4.8,0.,4.8,0.,4.8
1989-08-27T18:09:07.620 ,2,0,0.,4.8,0.,4.8,0.,4.8,0.,4.8
1989-08-27T18:09:12.420 ,2,0,0.,4.8,0.,4.8,0.,4.8,0.,4.8
1989-08-27T18:09:17.220 ,2,0,0.,4.8,0.,4.8,0.,4.8,0.,4.8
1989-08-27T18:09:22.020 ,2,0,0.,4.8,0.,4.8,0.,4.8,0.,4.8
1989-08-27T18:09:26.820 ,2,0,0.,4.8,2.,4.8,0.,4.8,0.,4.8
1989-08-27T18:09:31.620 ,2,0,0.,4.8,1.,4.8,0.,4.8,0.,4.8
1989-08-27T18:09:36.420 ,3,0,0.,4.8,0.,4.8,0.,4.8,0.,4.8
1989-08-27T18:09:41.220 ,3,0,0.,4.8,5.,4.8,0.,4.8,1.,4.8
1989-08-27T18:09:46.020 ,3,0,0.,4.8,2.,4.8,0.,4.8,0.,4.8
1989-08-27T18:09:50.820 ,3,0,0.,4.8,0.,4.8,0.,4.8,0.,4.8
1989-08-27T18:09:55.620 ,3,0,0.,4.8,2.,4.8,0.,4.8,0.,4.8
1989-08-27T18:10:00.420 ,3,0,0.,4.8,1.,4.8,0.,4.8,0.,4.8
1989-08-27T18:10:05.220 ,3,0,0.,4.8,0.,4.8,0.,4.8,0.,4.8
1989-08-27T18:10:10.020 ,3,0,0.,4.8,1.,4.8,0.,4.8,0.,4.8
1989-08-27T18:10:14.820 ,3,0,0.,4.8,0.,4.8,0.,4.8,0.,4.8
1989-08-27T18:10:19.620 ,3,0,0.,4.8,0.,4.8,0.,4.8,0.,4.8
1989-08-27T18:10:24.420 ,4,0,0.,4.8,2.,4.8,0.,4.8,0.,4.8
1989-08-27T18:10:29.220 ,4,0,0.,4.8,0.,4.8,0.,4.8,0.,4.8
1989-08-27T18:10:34.020 ,4,0,0.,4.8,2.,4.8,0.,4.8,0.,4.8
1989-08-27T18:10:38.820 ,4,0,0.,4.8,0.,4.8,0.,4.8,0.,4.8
1989-08-27T18:10:43.620 ,4,0,0.,4.8,0.,4.8,0.,4.8,1.,4.8
1989-08-27T18:10:48.420 ,4,0,0.,4.8,0.,4.8,0.,4.8,1.,4.8
1989-08-27T18:10:53.220 ,4,0,0.,4.8,0.,4.8,0.,4.8,0.,4.8
1989-08-27T18:10:58.020 ,4,0,0.,4.8,0.,4.8,0.,4.8,0.,4.8
1989-08-27T18:11:02.820 ,4,0,0.,4.8,0.,4.8,0.,4.8,0.,4.8
1989-08-27T18:11:07.620 ,4,0,0.,4.8,3.,4.8,0.,4.8,0.,4.8
1989-08-27T18:11:12.420 ,5,0,0.,4.8,0.,4.8,0.,4.8,0.,4.8
1989-08-27T18:11:17.220 ,5,0,0.,4.8,1.,4.8,0.,4.8,0.,4.8
1989-08-27T18:11:22.020 ,5,0,0.,4.8,0.,4.8,0.,4.8,0.,4.8
1989-08-27T18:11:26.820 ,5,0,0.,4.8,0.,4.8,0.,4.8,0.,4.8
1989-08-27T18:11:31.620 ,5,0,0.,4.8,0.,4.8,0.,4.8,0.,4.8
1989-08-27T18:11:36.420 ,0,0,0.,4.8,0.,4.8,0.,4.8,0.,4.8
1989-08-27T18:11:41.220 ,0,0,0.,4.8,0.,4.8,0.,4.8,0.,4.8
1989-08-27T18:11:46.020 ,0,0,0.,4.8,0.,4.8,0.,4.8,0.,4.8
1989-08-27T18:11:50.820 ,0,0,0.,4.8,1.,4.8,0.,4.8,0.,4.8
1989-08-27T18:11:55.620 ,0,0,0.,4.8,0.,4.8,0.,4.8,0.,4.8
1989-08-27T18:11:59.820 ,0,0,,0,,0,,0,,0
1989-08-27T18:12:04.620 ,0,0,,0,,0,,0,,0
1989-08-27T18:12:09.420 ,0,0,,0,,0,,0,,0
1989-08-27T18:12:14.220 ,0,0,,0,,0,,0,,0
1989-08-27T18:12:19.020 ,0,0,,0,,0,,0,,0
1989-08-27T18:12:00.420 ,6,0,0.,4.8,0.,4.8,0.,4.8,0.,4.8
1989-08-27T18:12:05.220 ,6,0,0.,4.8,0.,4.8,0.,4.8,0.,4.8
1989-08-27T18:12:10.020 ,6,0,0.,4.8,1.,4.8,0.,4.8,0.,4.8
1989-08-27T18:12:14.820 ,6,0,0.,4.8,0.,4.8,0.,4.8,0.,4.8
1989-08-27T18:12:19.620 ,6,0,0.,4.8,1.,4.8,0.,4.8,0.,4.8
1989-08-27T18:12:24.420 ,6,0,0.,4.8,0.,4.8,0.,4.8,0.,4.8
1989-08-27T18:12:29.220 ,6,0,0.,4.8,0.,4.8,0.,4.8,1.,4.8
1989-08-27T18:12:34.020 ,6,0,0.,4.8,0.,4.8,0.,4.8,0.,4.8
1989-08-27T18:12:38.820 ,6,0,0.,4.8,1.,4.8,0.,4.8,0.,4.8
1989-08-27T18:12:43.620 ,6,0,0.,4.8,0.,4.8,0.,4.8,0.,4.8
1989-08-27T18:12:48.420 ,7,0,0.,4.8,2.,4.8,0.,4.8,0.,4.8
1989-08-27T18:12:53.220 ,7,0,0.,4.8,0.,4.8,0.,4.8,0.,4.8
1989-08-27T18:12:58.020 ,7,0,0.,4.8,1.,4.8,0.,4.8,0.,4.8
1989-08-27T18:13:02.820 ,7,0,0.,4.8,1.,4.8,0.,4.8,0.,4.8
1989-08-27T18:13:07.620 ,7,0,0.,4.8,0.,4.8,0.,4.8,0.,4.8
1989-08-27T18:13:12.420 ,7,0,0.,4.8,2.,4.8,0.,4.8,0.,4.8
1989-08-27T18:13:17.220 ,7,0,0.,4.8,0.,4.8,0.,4.8,0.,4.8
1989-08-27T18:13:22.020 ,7,0,0.,4.8,2.,4.8,0.,4.8,1.,4.8
1989-08-27T18:13:26.820 ,7,0,0.,4.8,1.,4.8,0.,4.8,0.,4.8
1989-08-27T18:13:31.620 ,7,0,0.,4.8,0.,4.8,0.,4.8,0.,4.8
1989-08-27T18:13:36.420 ,7,0,0.,4.8,1.,4.8,0.,4.8,0.,4.8
1989-08-27T18:13:41.220 ,7,0,0.,4.8,0.,4.8,0.,4.8,0.,4.8
1989-08-27T18:13:46.020 ,7,0,0.,4.8,1.,4.8,0.,4.8,0.,4.8
1989-08-27T18:13:50.820 ,7,0,0.,4.8,2.,4.8,0.,4.8,0.,4.8
1989-08-27T18:13:55.620 ,7,0,0.,4.8,0.,4.8,0.,4.8,0.,4.8
1989-08-27T18:14:00.420 ,7,0,0.,4.8,4.,4.8,0.,4.8,0.,4.8
1989-08-27T18:14:05.220 ,7,0,0.,4.8,0.,4.8,0.,4.8,0.,4.8
1989-08-27T18:14:10.020 ,7,0,0.,4.8,1.,4.8,0.,4.8,0.,4.8
1989-08-27T18:14:14.820 ,7,0,0.,4.8,0.,4.8,0.,4.8,1.,4.8
1989-08-27T18:14:19.620 ,7,0,0.,4.8,1.,4.8,0.,4.8,0.,4.8
1989-08-27T18:14:24.420 ,6,0,0.,4.8,0.,4.8,0.,4.8,0.,4.8
1989-08-27T18:14:29.220 ,6,0,0.,4.8,0.,4.8,0.,4.8,1.,4.8
1989-08-27T18:14:34.020 ,6,0,0.,4.8,1.,4.8,0.,4.8,0.,4.8
1989-08-27T18:14:38.820 ,6,0,0.,4.8,0.,4.8,0.,4.8,0.,4.8
1989-08-27T18:14:43.620 ,6,0,0.,4.8,0.,4.8,0.,4.8,1.,4.8
1989-08-27T18:14:48.420 ,6,0,0.,4.8,0.,4.8,0.,4.8,0.,4.8
1989-08-27T18:14:53.220 ,6,0,0.,4.8,0.,4.8,0.,4.8,0.,4.8
1989-08-27T18:14:58.020 ,6,0,0.,4.8,1.,4.8,0.,4.8,0.,4.8
1989-08-27T18:15:02.820 ,6,0,0.,4.8,1.,4.8,0.,4.8,0.,4.8
1989-08-27T18:15:07.620 ,6,0,0.,4.8,0.,4.8,0.,4.8,0.,4.8
1989-08-27T18:15:12.420 ,5,0,0.,4.8,0.,4.8,0.,4.8,0.,4.8
1989-08-27T18:15:17.220 ,5,0,0.,4.8,0.,4.8,0.,4.8,0.,4.8
1989-08-27T18:15:22.020 ,5,0,0.,4.8,0.,4.8,0.,4.8,0.,4.8
1989-08-27T18:15:26.820 ,5,0,0.,4.8,0.,4.8,0.,4.8,0.,4.8
1989-08-27T18:15:31.620 ,5,0,0.,4.8,1.,4.8,0.,4.8,0.,4.8
1989-08-27T18:15:36.420 ,0,0,0.,4.8,0.,4.8,0.,4.8,0.,4.8
1989-08-27T18:15:41.220 ,0,0,0.,4.8,1.,4.8,0.,4.8,0.,4.8
1989-08-27T18:15:46.020 ,0,0,0.,4.8,1.,4.8,0.,4.8,1.,4.8
1989-08-27T18:15:50.820 ,0,0,0.,4.8,0.,4.8,0.,4.8,0.,4.8
1989-08-27T18:15:55.620 ,0,0,0.,4.8,1.,4.8,0.,4.8,0.,4.8
1989-08-27T18:18:26.820 ,0,0,,0,,0,,0,,0
1989-08-27T18:18:31.620 ,0,0,0.,4.8,0.,4.8,0.,4.8,0.,4.8
1989-08-27T18:18:36.420 ,0,0,0.,4.8,0.,4.8,0.,4.8,0.,4.8
1989-08-27T18:18:41.220 ,0,0,0.,4.8,0.,4.8,0.,4.8,0.,4.8
1989-08-27T18:18:46.020 ,0,0,0.,4.8,2.,4.8,0.,4.8,0.,4.8
1989-08-27T18:18:48.420 ,0,0,0.,4.8,0.,4.8,0.,4.8,0.,4.8
1989-08-27T18:18:53.220 ,0,0,0.,4.8,0.,4.8,0.,4.8,0.,4.8
1989-08-27T18:18:58.020 ,0,0,0.,4.8,1.,4.8,0.,4.8,0.,4.8
1989-08-27T18:19:02.820 ,0,0,0.,4.8,0.,4.8,1.,4.8,0.,4.8
1989-08-27T18:19:07.620 ,0,0,0.,4.8,0.,4.8,0.,4.8,0.,4.8
1989-08-27T18:19:12.420 ,0,0,0.,4.8,0.,4.8,0.,4.8,0.,4.8
1989-08-27T18:19:17.220 ,0,0,0.,4.8,0.,4.8,0.,4.8,0.,4.8
1989-08-27T18:19:22.020 ,0,0,0.,4.8,9.,4.8,0.,4.8,0.,4.8
1989-08-27T18:19:26.820 ,0,0,0.,4.8,1.,4.8,0.,4.8,0.,4.8
1989-08-27T18:19:31.620 ,0,0,0.,4.8,1.,4.8,0.,4.8,0.,4.8
1989-08-27T18:19:36.420 ,0,0,0.,4.8,0.,4.8,0.,4.8,0.,4.8
1989-08-27T18:19:41.220 ,0,0,0.,4.8,0.,4.8,0.,4.8,0.,4.8
1989-08-27T18:19:46.020 ,0,0,0.,4.8,1.,4.8,0.,4.8,0.,4.8
1989-08-27T18:19:50.820 ,0,0,0.,4.8,1.,4.8,0.,4.8,0.,4.8
1989-08-27T18:19:55.620 ,0,0,0.,4.8,0.,4.8,0.,4.8,0.,4.8
1989-08-27T18:20:00.420 ,0,0,0.,4.8,1.,4.8,0.,4.8,0.,4.8
1989-08-27T18:20:05.220 ,0,0,0.,4.8,1.,4.8,0.,4.8,0.,4.8
1989-08-27T18:20:10.020 ,0,0,0.,4.8,2.,4.8,0.,4.8,0.,4.8
1989-08-27T18:20:14.820 ,0,0,0.,4.8,0.,4.8,0.,4.8,0.,4.8
1989-08-27T18:20:19.620 ,0,0,0.,4.8,1.,4.8,0.,4.8,0.,4.8
1989-08-27T18:20:24.420 ,0,0,0.,4.8,0.,4.8,0.,4.8,0.,4.8
1989-08-27T18:20:29.220 ,0,0,0.,4.8,1.,4.8,0.,4.8,0.,4.8
1989-08-27T18:20:34.020 ,0,0,0.,4.8,0.,4.8,0.,4.8,0.,4.8
1989-08-27T18:20:38.820 ,0,0,0.,4.8,1.,4.8,0.,4.8,0.,4.8
1989-08-27T18:20:43.620 ,0,0,0.,4.8,2.,4.8,0.,4.8,0.,4.8
1989-08-27T18:20:48.420 ,1,0,0.,4.8,1.,4.8,0.,4.8,0.,4.8
1989-08-27T18:20:53.220 ,1,0,0.,4.8,0.,4.8,0.,4.8,0.,4.8
1989-08-27T18:20:58.020 ,1,0,0.,4.8,0.,4.8,0.,4.8,0.,4.8
1989-08-27T18:21:02.820 ,1,0,0.,4.8,1.,4.8,0.,4.8,0.,4.8
1989-08-27T18:21:07.620 ,1,0,0.,4.8,0.,4.8,0.,4.8,0.,4.8
1989-08-27T18:21:12.420 ,1,0,0.,4.8,1.,4.8,0.,4.8,0.,4.8
1989-08-27T18:21:17.220 ,1,0,0.,4.8,0.,4.8,1.,4.8,0.,4.8
1989-08-27T18:21:22.020 ,1,0,0.,4.8,2.,4.8,0.,4.8,0.,4.8
1989-08-27T18:21:26.820 ,1,0,0.,4.8,1.,4.8,0.,4.8,0.,4.8
1989-08-27T18:21:31.620 ,1,0,0.,4.8,0.,4.8,1.,4.8,0.,4.8
1989-08-27T18:21:36.420 ,2,0,0.,4.8,2.,4.8,0.,4.8,0.,4.8
1989-08-27T18:21:41.220 ,2,0,0.,4.8,0.,4.8,0.,4.8,0.,4.8
1989-08-27T18:21:46.020 ,2,0,0.,4.8,1.,4.8,0.,4.8,0.,4.8
1989-08-27T18:21:50.820 ,2,0,0.,4.8,0.,4.8,0.,4.8,0.,4.8
1989-08-27T18:21:55.620 ,2,0,0.,4.8,1.,4.8,0.,4.8,0.,4.8
1989-08-27T18:22:00.420 ,2,0,0.,4.8,0.,4.8,1.,4.8,0.,4.8
1989-08-27T18:22:05.220 ,2,0,0.,4.8,2.,4.8,0.,4.8,0.,4.8
1989-08-27T18:22:10.020 ,2,0,0.,4.8,1.,4.8,0.,4.8,0.,4.8
1989-08-27T18:22:14.820 ,2,0,0.,4.8,2.,4.8,0.,4.8,0.,4.8
1989-08-27T18:22:19.620 ,2,0,0.,4.8,2.,4.8,0.,4.8,0.,4.8
1989-08-27T18:22:24.420 ,3,0,0.,4.8,1.,4.8,0.,4.8,0.,4.8
1989-08-27T18:22:29.220 ,3,0,0.,4.8,1.,4.8,1.,4.8,0.,4.8
1989-08-27T18:22:34.020 ,3,0,0.,4.8,0.,4.8,0.,4.8,0.,4.8
1989-08-27T18:22:38.820 ,3,0,0.,4.8,1.,4.8,0.,4.8,1.,4.8
1989-08-27T18:22:43.620 ,3,0,0.,4.8,1.,4.8,0.,4.8,0.,4.8
1989-08-27T18:22:48.420 ,3,0,0.,4.8,1.,4.8,0.,4.8,0.,4.8
1989-08-27T18:22:53.220 ,3,0,0.,4.8,0.,4.8,0.,4.8,0.,4.8
1989-08-27T18:22:58.020 ,3,0,0.,4.8,0.,4.8,0.,4.8,0.,4.8
1989-08-27T18:23:02.820 ,3,0,0.,4.8,1.,4.8,0.,4.8,0.,4.8
1989-08-27T18:23:07.620 ,3,0,0.,4.8,0.,4.8,0.,4.8,0.,4.8
1989-08-27T18:23:12.420 ,4,0,0.,4.8,0.,4.8,0.,4.8,1.,4.8
1989-08-27T18:23:17.220 ,4,0,0.,4.8,0.,4.8,0.,4.8,0.,4.8
1989-08-27T18:23:22.020 ,4,0,0.,4.8,0.,4.8,0.,4.8,0.,4.8
1989-08-27T18:23:26.820 ,4,0,0.,4.8,0.,4.8,0.,4.8,0.,4.8
1989-08-27T18:23:31.620 ,4,0,0.,4.8,1.,4.8,0.,4.8,0.,4.8
1989-08-27T18:23:36.420 ,0,0,0.,4.8,0.,4.8,0.,4.8,0.,4.8
1989-08-27T18:23:41.220 ,0,0,0.,4.8,1.,4.8,1.,4.8,0.,4.8
1989-08-27T18:23:46.020 ,0,0,0.,4.8,1.,4.8,0.,4.8,0.,4.8
1989-08-27T18:23:50.820 ,0,0,0.,4.8,0.,4.8,1.,4.8,0.,4.8
1989-08-27T18:23:55.620 ,0,0,0.,4.8,0.,4.8,0.,4.8,0.,4.8
1989-08-27T18:24:38.820 ,0,0,,0,,0,,0,,0
1989-08-27T18:24:43.620 ,0,0,,0,,0,,0,,0
1989-08-27T18:24:48.420 ,0,0,,0,,0,,0,,0
1989-08-27T18:24:53.220 ,0,0,0.,4.8,1.,4.8,0.,4.8,0.,4.8
1989-08-27T18:24:58.020 ,0,0,0.,4.8,1.,4.8,1.,4.8,0.,4.8
1989-08-27T18:24:48.420 ,6,0,0.,4.8,1.,4.8,0.,4.8,0.,4.8
1989-08-27T18:24:53.220 ,6,0,0.,4.8,0.,4.8,0.,4.8,0.,4.8
1989-08-27T18:24:58.020 ,6,0,0.,4.8,0.,4.8,0.,4.8,0.,4.8
1989-08-27T18:25:02.820 ,6,0,0.,4.8,1.,4.8,0.,4.8,0.,4.8
1989-08-27T18:25:07.620 ,6,0,0.,4.8,0.,4.8,0.,4.8,0.,4.8
1989-08-27T18:25:12.420 ,6,0,0.,4.8,2.,4.8,0.,4.8,0.,4.8
1989-08-27T18:25:17.220 ,6,0,0.,4.8,0.,4.8,1.,4.8,0.,4.8
1989-08-27T18:25:22.020 ,6,0,0.,4.8,0.,4.8,0.,4.8,0.,4.8
1989-08-27T18:25:26.820 ,6,0,0.,4.8,1.,4.8,0.,4.8,0.,4.8
1989-08-27T18:25:31.620 ,6,0,0.,4.8,1.,4.8,1.,4.8,0.,4.8
1989-08-27T18:25:36.420 ,7,0,0.,4.8,0.,4.8,0.,4.8,0.,4.8
1989-08-27T18:25:41.220 ,7,0,0.,4.8,0.,4.8,0.,4.8,0.,4.8
1989-08-27T18:25:46.020 ,7,0,0.,4.8,0.,4.8,0.,4.8,0.,4.8
1989-08-27T18:25:50.820 ,7,0,0.,4.8,1.,4.8,0.,4.8,0.,4.8
1989-08-27T18:25:55.620 ,7,0,0.,4.8,1.,4.8,0.,4.8,0.,4.8
1989-08-27T18:26:00.420 ,7,0,0.,4.8,0.,4.8,0.,4.8,1.,4.8
1989-08-27T18:26:05.220 ,7,0,0.,4.8,0.,4.8,0.,4.8,0.,4.8
1989-08-27T18:26:10.020 ,7,0,0.,4.8,1.,4.8,0.,4.8,0.,4.8
1989-08-27T18:26:14.820 ,7,0,0.,4.8,0.,4.8,0.,4.8,0.,4.8
1989-08-27T18:26:19.620 ,7,0,0.,4.8,1.,4.8,0.,4.8,0.,4.8
1989-08-27T18:26:24.420 ,7,0,0.,4.8,1.,4.8,0.,4.8,0.,4.8
1989-08-27T18:26:29.220 ,7,0,0.,4.8,1.,4.8,0.,4.8,0.,4.8
1989-08-27T18:26:34.020 ,7,0,0.,4.8,0.,4.8,0.,4.8,0.,4.8
1989-08-27T18:26:38.820 ,7,0,0.,4.8,1.,4.8,0.,4.8,0.,4.8
1989-08-27T18:26:43.620 ,7,0,0.,4.8,1.,4.8,0.,4.8,0.,4.8
1989-08-27T18:26:48.420 ,7,0,0.,4.8,0.,4.8,0.,4.8,0.,4.8
1989-08-27T18:26:53.220 ,7,0,0.,4.8,0.,4.8,0.,4.8,0.,4.8
1989-08-27T18:26:58.020 ,7,0,0.,4.8,1.,4.8,0.,4.8,0.,4.8
1989-08-27T18:27:02.820 ,7,0,0.,4.8,1.,4.8,0.,4.8,0.,4.8
1989-08-27T18:27:07.620 ,7,0,0.,4.8,0.,4.8,1.,4.8,0.,4.8
1989-08-27T18:27:12.420 ,6,0,0.,4.8,1.,4.8,0.,4.8,0.,4.8
1989-08-27T18:27:17.220 ,6,0,0.,4.8,0.,4.8,0.,4.8,0.,4.8
1989-08-27T18:27:22.020 ,6,0,0.,4.8,1.,4.8,1.,4.8,0.,4.8
1989-08-27T18:27:26.820 ,6,0,0.,4.8,2.,4.8,0.,4.8,0.,4.8
1989-08-27T18:27:31.620 ,6,0,0.,4.8,1.,4.8,0.,4.8,0.,4.8
1989-08-27T18:27:36.420 ,6,0,0.,4.8,0.,4.8,0.,4.8,0.,4.8
1989-08-27T18:27:41.220 ,6,0,0.,4.8,0.,4.8,0.,4.8,1.,4.8
1989-08-27T18:27:46.020 ,6,0,0.,4.8,0.,4.8,0.,4.8,0.,4.8
1989-08-27T18:27:50.820 ,6,0,0.,4.8,0.,4.8,0.,4.8,0.,4.8
1989-08-27T18:27:55.620 ,6,0,0.,4.8,0.,4.8,0.,4.8,1.,4.8
1989-08-27T18:28:00.420 ,5,0,0.,4.8,2.,4.8,0.,4.8,1.,4.8
1989-08-27T18:28:05.220 ,5,0,0.,4.8,0.,4.8,0.,4.8,0.,4.8
1989-08-27T18:28:10.020 ,5,0,0.,4.8,0.,4.8,0.,4.8,1.,4.8
1989-08-27T18:28:14.820 ,5,0,0.,4.8,0.,4.8,0.,4.8,0.,4.8
1989-08-27T18:28:19.620 ,5,0,0.,4.8,2.,4.8,0.,4.8,0.,4.8
1989-08-27T18:28:24.420 ,5,0,0.,4.8,0.,4.8,0.,4.8,0.,4.8
1989-08-27T18:28:29.220 ,5,0,0.,4.8,0.,4.8,0.,4.8,0.,4.8
1989-08-27T18:28:34.020 ,5,0,0.,4.8,0.,4.8,0.,4.8,0.,4.8
1989-08-27T18:28:38.820 ,5,0,0.,4.8,0.,4.8,0.,4.8,0.,4.8
1989-08-27T18:28:43.620 ,5,0,0.,4.8,1.,4.8,0.,4.8,0.,4.8
1989-08-27T18:28:48.420 ,4,0,0.,4.8,0.,4.8,0.,4.8,0.,4.8
1989-08-27T18:28:53.220 ,4,0,0.,4.8,1.,4.8,0.,4.8,0.,4.8
1989-08-27T18:28:58.020 ,4,0,0.,4.8,0.,4.8,0.,4.8,0.,4.8
1989-08-27T18:29:02.820 ,4,0,0.,4.8,0.,4.8,0.,4.8,0.,4.8
1989-08-27T18:29:07.620 ,4,0,0.,4.8,0.,4.8,0.,4.8,0.,4.8
1989-08-27T18:29:12.420 ,4,0,0.,4.8,0.,4.8,1.,4.8,0.,4.8
1989-08-27T18:29:17.220 ,4,0,0.,4.8,0.,4.8,0.,4.8,0.,4.8
1989-08-27T18:29:22.020 ,4,0,0.,4.8,0.,4.8,0.,4.8,0.,4.8
1989-08-27T18:29:26.820 ,4,0,0.,4.8,1.,4.8,0.,4.8,0.,4.8
1989-08-27T18:29:31.620 ,4,0,0.,4.8,0.,4.8,0.,4.8,0.,4.8
1989-08-27T18:29:36.420 ,3,0,0.,4.8,1.,4.8,0.,4.8,0.,4.8
1989-08-27T18:29:41.220 ,3,0,0.,4.8,0.,4.8,1.,4.8,0.,4.8
1989-08-27T18:29:46.020 ,3,0,0.,4.8,0.,4.8,0.,4.8,0.,4.8
1989-08-27T18:29:50.820 ,3,0,0.,4.8,0.,4.8,0.,4.8,0.,4.8
1989-08-27T18:29:55.620 ,3,0,0.,4.8,0.,4.8,0.,4.8,0.,4.8
1989-08-27T18:30:00.420 ,3,0,0.,4.8,0.,4.8,0.,4.8,0.,4.8
1989-08-27T18:30:05.220 ,3,0,0.,4.8,0.,4.8,0.,4.8,0.,4.8
1989-08-27T18:30:10.020 ,3,0,0.,4.8,0.,4.8,0.,4.8,0.,4.8
1989-08-27T18:30:14.820 ,3,0,0.,4.8,2.,4.8,0.,4.8,0.,4.8
1989-08-27T18:30:19.620 ,3,0,0.,4.8,0.,4.8,2.,4.8,0.,4.8
1989-08-27T18:30:24.420 ,2,0,0.,4.8,0.,4.8,0.,4.8,0.,4.8
1989-08-27T18:30:29.220 ,2,0,0.,4.8,1.,4.8,0.,4.8,0.,4.8
1989-08-27T18:30:34.020 ,2,0,0.,4.8,0.,4.8,0.,4.8,1.,4.8
1989-08-27T18:30:38.820 ,2,0,0.,4.8,0.,4.8,0.,4.8,0.,4.8
1989-08-27T18:30:43.620 ,2,0,0.,4.8,1.,4.8,0.,4.8,0.,4.8
1989-08-27T18:30:48.420 ,2,0,0.,4.8,1.,4.8,0.,4.8,0.,4.8
1989-08-27T18:30:53.220 ,2,0,0.,4.8,0.,4.8,0.,4.8,0.,4.8
1989-08-27T18:30:58.020 ,2,0,0.,4.8,1.,4.8,0.,4.8,0.,4.8
1989-08-27T18:31:02.820 ,2,0,0.,4.8,1.,4.8,1.,4.8,0.,4.8
1989-08-27T18:31:07.620 ,2,0,0.,4.8,1.,4.8,1.,4.8,0.,4.8
1989-08-27T18:31:12.420 ,1,0,0.,4.8,0.,4.8,1.,4.8,0.,4.8
1989-08-27T18:31:17.220 ,1,0,0.,4.8,0.,4.8,1.,4.8,1.,4.8
1989-08-27T18:31:22.020 ,1,0,0.,4.8,0.,4.8,1.,4.8,0.,4.8
1989-08-27T18:31:26.820 ,1,0,0.,4.8,1.,4.8,0.,4.8,0.,4.8
1989-08-27T18:31:31.620 ,1,0,0.,4.8,2.,4.8,0.,4.8,0.,4.8
1989-08-27T18:31:36.420 ,1,0,0.,4.8,1.,4.8,0.,4.8,0.,4.8
1989-08-27T18:31:41.220 ,1,0,0.,4.8,1.,4.8,0.,4.8,0.,4.8
1989-08-27T18:31:46.020 ,1,0,0.,4.8,1.,4.8,1.,4.8,0.,4.8
1989-08-27T18:31:50.820 ,1,0,0.,4.8,2.,4.8,0.,4.8,0.,4.8
1989-08-27T18:31:55.620 ,1,0,0.,4.8,0.,4.8,1.,4.8,0.,4.8
1989-08-27T18:32:00.420 ,0,0,0.,4.8,0.,4.8,0.,4.8,0.,4.8
1989-08-27T18:32:05.220 ,0,0,0.,4.8,0.,4.8,0.,4.8,0.,4.8
1989-08-27T18:32:10.020 ,0,0,0.,4.8,1.,4.8,1.,4.8,0.,4.8
1989-08-27T18:32:14.820 ,0,0,0.,4.8,0.,4.8,0.,4.8,0.,4.8
1989-08-27T18:32:19.620 ,0,0,0.,4.8,0.,4.8,0.,4.8,0.,4.8
1989-08-27T18:32:24.420 ,0,0,0.,4.8,1.,4.8,0.,4.8,0.,4.8
1989-08-27T18:32:29.220 ,0,0,0.,4.8,1.,4.8,0.,4.8,0.,4.8
1989-08-27T18:32:34.020 ,0,0,0.,4.8,0.,4.8,2.,4.8,0.,4.8
1989-08-27T18:32:38.820 ,0,0,0.,4.8,2.,4.8,0.,4.8,0.,4.8
1989-08-27T18:32:43.620 ,0,0,0.,4.8,0.,4.8,0.,4.8,0.,4.8
1989-08-27T18:32:48.420 ,0,0,0.,4.8,0.,4.8,0.,4.8,0.,4.8
1989-08-27T18:32:53.220 ,0,0,0.,4.8,1.,4.8,0.,4.8,0.,4.8
1989-08-27T18:32:58.020 ,0,0,0.,4.8,0.,4.8,0.,4.8,0.,4.8
1989-08-27T18:33:02.820 ,0,0,0.,4.8,0.,4.8,0.,4.8,0.,4.8
1989-08-27T18:33:07.620 ,0,0,0.,4.8,0.,4.8,0.,4.8,0.,4.8
1989-08-27T18:33:12.420 ,0,0,0.,4.8,2.,4.8,0.,4.8,0.,4.8
1989-08-27T18:33:17.220 ,0,0,0.,4.8,0.,4.8,0.,4.8,0.,4.8
1989-08-27T18:33:22.020 ,0,0,0.,4.8,0.,4.8,0.,4.8,0.,4.8
1989-08-27T18:33:26.820 ,0,0,0.,4.8,0.,4.8,0.,4.8,0.,4.8
1989-08-27T18:33:31.620 ,0,0,0.,4.8,0.,4.8,0.,4.8,0.,4.8
1989-08-27T18:33:36.420 ,1,0,0.,4.8,0.,4.8,0.,4.8,0.,4.8
1989-08-27T18:33:41.220 ,1,0,0.,4.8,1.,4.8,0.,4.8,0.,4.8
1989-08-27T18:33:46.020 ,1,0,0.,4.8,0.,4.8,0.,4.8,0.,4.8
1989-08-27T18:33:50.820 ,1,0,0.,4.8,1.,4.8,0.,4.8,0.,4.8
1989-08-27T18:33:55.620 ,1,0,0.,4.8,0.,4.8,1.,4.8,0.,4.8
1989-08-27T18:34:00.420 ,1,0,0.,4.8,1.,4.8,0.,4.8,0.,4.8
1989-08-27T18:34:05.220 ,1,0,0.,4.8,0.,4.8,1.,4.8,0.,4.8
1989-08-27T18:34:10.020 ,1,0,0.,4.8,1.,4.8,0.,4.8,0.,4.8
1989-08-27T18:34:14.820 ,1,0,0.,4.8,1.,4.8,0.,4.8,0.,4.8
1989-08-27T18:34:19.620 ,1,0,0.,4.8,0.,4.8,0.,4.8,0.,4.8
1989-08-27T18:34:24.420 ,2,0,0.,4.8,0.,4.8,1.,4.8,0.,4.8
1989-08-27T18:34:29.220 ,2,0,0.,4.8,0.,4.8,0.,4.8,0.,4.8
1989-08-27T18:34:34.020 ,2,0,0.,4.8,2.,4.8,1.,4.8,0.,4.8
1989-08-27T18:34:38.820 ,2,0,0.,4.8,2.,4.8,0.,4.8,0.,4.8
1989-08-27T18:34:43.620 ,2,0,0.,4.8,2.,4.8,0.,4.8,0.,4.8
1989-08-27T18:34:48.420 ,2,0,0.,4.8,1.,4.8,0.,4.8,0.,4.8
1989-08-27T18:34:53.220 ,2,0,0.,4.8,0.,4.8,0.,4.8,0.,4.8
1989-08-27T18:34:58.020 ,2,0,0.,4.8,0.,4.8,0.,4.8,0.,4.8
1989-08-27T18:35:02.820 ,2,0,0.,4.8,0.,4.8,0.,4.8,0.,4.8
1989-08-27T18:35:07.620 ,2,0,0.,4.8,1.,4.8,1.,4.8,0.,4.8
1989-08-27T18:35:12.420 ,3,0,0.,4.8,1.,4.8,0.,4.8,1.,4.8
1989-08-27T18:35:17.220 ,3,0,0.,4.8,0.,4.8,0.,4.8,0.,4.8
1989-08-27T18:35:22.020 ,3,0,0.,4.8,0.,4.8,0.,4.8,0.,4.8
1989-08-27T18:35:26.820 ,3,0,0.,4.8,0.,4.8,0.,4.8,0.,4.8
1989-08-27T18:35:31.620 ,3,0,0.,4.8,0.,4.8,0.,4.8,0.,4.8
1989-08-27T18:35:36.420 ,3,0,0.,4.8,1.,4.8,0.,4.8,0.,4.8
1989-08-27T18:35:41.220 ,3,0,0.,4.8,0.,4.8,0.,4.8,0.,4.8
1989-08-27T18:35:46.020 ,3,0,0.,4.8,0.,4.8,0.,4.8,0.,4.8
1989-08-27T18:35:50.820 ,3,0,0.,4.8,2.,4.8,0.,4.8,0.,4.8
1989-08-27T18:35:55.620 ,3,0,0.,4.8,1.,4.8,0.,4.8,0.,4.8